Simultaneous Nadir Overpasses (SNOs) Predictions

Prediction of SNOs between GOES-16 and AQUA Satellite Orbit:

Table of predicted SNOs for the next 14.0 days since TLE Epoch: 5/3/2019
Index Date Time (GOES-16) GOES-16 Lat,Lon AQUA Lat,Lon Distance(km) Time Diff (sec)
1 05/04/2019 06:23:44 0.00, -75.22 -0.59, -72.41 319.62 80
2 05/04/2019 18:45:07 -0.00, -75.23 -0.51, -77.60 269.36 80
3 05/06/2019 18:35:35 -0.00, -75.25 0.12, -74.64 68.79 80
4 05/08/2019 18:23:24 -0.00, -75.26 0.74, -71.68 406.95 80
5 05/09/2019 06:44:39 -0.00, -75.26 0.31, -76.85 179.66 80
6 05/11/2019 06:29:47 -0.01, -75.28 -0.33, -73.89 158.86 80
7 05/11/2019 18:51:11 0.01, -75.29 -0.78, -79.08 430.23 80
8 05/13/2019 06:17:35 -0.01, -75.31 -0.97, -70.94 497.99 80
9 05/13/2019 18:38:59 0.01, -75.32 -0.15, -76.13 90.85 80
10 05/15/2019 18:29:27 0.01, -75.36 0.49, -73.17 249.37 80
11 05/16/2019 06:50:42 -0.01, -75.36 0.61, -78.32 336.29 80




NCC Satellite Simultaneous Nadir Overpasses (SNOs) Prediction Service
